Lid_Strength_Index
4 4 4 4 4 3 3 3 3 2 2 2 2 2 2 2 2 5 7 7 7 9 11 9 9 12 11 10 12 10 10 10 12 13 13 14 14 13 14 12 12 13 15 15 15 17 17 7 8 11 9 9 7 7
4 3 3 3 3 3 3 3 2 2 2 2 2 2 2 2 2 4 9 6 5 9 10 8 8 8 9 9 9 10 10 10 9 12 13 13 14 14 15 15 11 13 12 13 12 13 9 7 8 7 6 7 7 7
3 2 2 2 2 3 3 2 2 2 2 2 2 2 2 1 1 3 7 5 6 8 9 11 10 8 8 8 6 10 9 9 10 9 10 11 12 12 15 14 13 11 9 12 11 10 9 8 7 6 6 6 6 7
2 2 2 2 2 2 2 2 2 2 2 2 2 2 1 1 1 2 6 6 5 8 12 11 7 9 6 7 6 6 7 9 9 10 11 11 12 9 12 11 11 10 10 11 11 10 9 8 7 6 6 6 6 6
1 1 1 1 1 1 2 2 2 2 2 2 1 2 2 2 1 3 4 5 5 8 12 11 9 8 7 6 7 8 9 10 11 11 11 12 11 11 11 10 11 8 10 12 12 9 9 8 6 5 6 6 6 7
1 1 1 1 1 1 1 2 2 2 2 1 1 2 2 2 2 5 6 5 4 6 9 13 9 9 8 7 8 9 9 10 11 11 12 11 11 11 13 12 10 8 7 7 8 7 7 6 5 4 5 6 6 6
1 1 1 1 1 1 1 2 2 2 2 2 2 2 2 1 5 6 7 5 3 6 9 11 12 9 8 9 9 10 10 11 11 13 13 13 12 11 13 14 9 7 6 6 5 6 8 6 7 5 4 5 5 5
1 0 0 0 1 1 1 2 2 2 2 2 2 2 2 1 3 5 5 2 4 7 8 12 13 11 9 11 11 10 11 11 12 13 13 14 13 14 16 12 10 6 6 6 5 5 6 5 5 5 4 5 6 6
0 0 0 0 1 1 1 2 2 2 2 2 2 2 5 6 7 6 2 3 5 7 12 12 14 14 10 11 10 10 11 13 12 14 14 13 14 16 15 13 12 10 9 9 7 5 5 6 5 5 5 5 6 6
0 0 0 0 1 1 1 2 2 2 2 1 4 6 9 6 2 3 5 8 8 9 10 12 12 13 11 11 11 11 12 13 15 13 12 14 15 12 8 8 10 9 9 8 7 8 7 6 6 5 5 5 4 5
0 0 0 0 1 1 1 1 1 1 2 5 7 6 5 3 6 7 10 11 10 12 12 11 11 13 10 11 12 11 12 12 14 13 13 15 14 8 6 6 6 6 8 8 5 5 5 5 5 5 5 4 4 5
-0 0 0 0 1 1 1 1 1 4 5 4 4 4 5 7 10 11 13 11 11 12 11 12 10 11 10 10 12 12 14 14 14 12 12 14 10 6 6 6 6 6 6 8 8 7 4 5 5 5 4 4 5 6
-0 0 0 1 1 1 1 1 1 1 2 2 4 7 10 11 15 13 14 13 13 10 10 9 10 10 10 10 12 12 13 17 12 14 14 11 7 6 7 6 7 6 6 5 4 4 4 4 3 4 4 4 6 6
-0 -0 0 1 1 1 1 1 1 2 3 6 7 13 12 12 11 11 10 10 7 7 9 8 9 10 11 11 11 12 12 12 16 17 13 10 8 7 7 7 7 7 7 7 6 5 4 4 4 4 4 4 5 6
-1 -0 -0 1 1 1 0 1 1 3 5 7 8 13 10 8 7 7 7 7 6 5 8 9 9 9 10 11 11 12 12 14 13 13 11 9 8 8 9 8 8 8 7 7 6 5 4 4 4 4 4 3 4 5
-1 -0 2 0 1 0 1 2 3 3 6 7 8 9 8 9 8 7 7 7 5 6 8 10 13 15 13 12 12 13 13 13 12 10 10 10 10 10 10 9 8 7 7 7 6 5 4 4 4 4 3 4 4 5
0 5 0 0 0 0 1 4 4 6 8 8 9 8 8 8 9 8 6 7 6 8 11 12 14 13 12 12 12 12 12 11 11 10 10 10 10 11 10 10 9 8 8 8 7 5 4 3 3 3 5 5 4 5
5 3 -0 -0 2 2 4 4 6 8 9 9 10 10 9 8 8 8 6 6 7 8 10 12 10 13 15 13 13 11 11 10 10 10 10 10 10 9 9 9 8 8 8 7 7 5 3 4 4 4 5 4 5 5
3 2 -0 0 3 5 7 7 6 10 9 9 9 9 8 8 7 7 6 7 7 7 9 11 11 14 13 12 11 11 11 10 10 9 9 9 9 9 9 8 8 8 8 8 7 7 5 3 3 3 4 4 5 5
-1 -0 0 0 2 6 7 8 6 8 10 9 9 9 9 8 8 7 6 7 8 9 10 12 13 13 13 11 10 9 9 9 9 10 9 8 8 9 9 8 9 9 8 8 7 9 5 3 3 3 3 4 5 5
2 2 1 3 4 5 6 8 9 9 9 10 8 9 8 8 9 9 9 8 9 10 11 10 8 9 9 8 8 8 7 7 8 8 8 9 7 6 6 8 8 8 8 8 8 7 7 3 3 3 4 4 4 5
4 1 5 3 6 5 7 7 8 9 9 9 9 9 10 10 10 9 8 9 10 8 8 9 8 7 7 7 7 6 6 6 6 6 7 7 7 6 6 6 8 8 8 8 7 6 4 2 2 3 4 5 6 6
1 2 5 4 7 11 11 7 9 9 10 9 9 10 11 10 9 8 10 10 9 9 10 9 8 8 8 8 8 8 8 8 8 8 7 7 6 6 5 5 6 7 8 7 6 5 4 5 6 4 5 5 6 7
2 5 7 7 9 12 8 11 10 10 9 10 10 10 10 11 9 10 11 12 12 11 10 9 9 10 10 10 9 8 7 5 7 8 7 7 7 6 5 4 5 5 6 5 4 2 3 4 6 5 5 6 5 6
11 11 11 16 9 10 9 10 9 10 10 9 10 12 12 12 14 15 14 11 10 10 10 10 10 11 11 10 8 4 3 4 5 6 5 5 6 6 5 4 4 4 4 3 3 3 4 4 4 5 5 6 6 6
13 8 13 9 10 11 11 11 11 10 11 11 10 10 9 12 12 14 12 11 11 11 11 12 12 11 8 6 5 5 4 2 3 4 5 4 4 4 4 4 4 3 1 1 3 4 5 4 5 5 6 8 9 6
10 9 8 6 8 10 11 9 9 12 12 12 11 11 12 13 14 12 11 10 11 11 11 10 8 7 8 7 6 4 4 3 3 3 2 2 2 1 2 4 4 3 1 2 3 3 5 5 6 6 6 5 5 6
7 8 11 9 8 8 8 9 10 10 11 10 10 12 13 14 14 11 11 10 10 10 8 6 6 6 6 7 6 6 5 3 3 3 3 3 2 1 2 2 3 8 3 2 3 3 4 5 5 5 5 6 7 6
7 7 7 8 7 8 10 10 10 10 9 9 11 12 12 11 10 10 11 10 8 7 7 7 7 6 5 5 6 6 6 6 6 8 8 7 6 4 4 2 3 4 5 6 10 7 5 5 5 5 6 6 6 6
7 6 7 7 8 9 9 9 10 9 9 10 10 9 10 10 9 8 8 8 8 8 7 7 7 7 8 7 7 7 7 7 7 7 8 8 8 6 4 4 4 4 4 5 6 7 9 6 7 5 6 6 6 7
5 7 8 7 8 8 8 8 8 8 9 10 10 11 11 10 9 8 8 8 7 7 7 8 8 8 8 9 9 8 8 8 7 7 6 6 5 5 5 4 4 3 3 3 4 4 5 4 5 6 6 6 6 6
8 9 9 8 8 7 6 8 9 9 10 10 10 10 10 11 12 10 8 8 8 8 9 9 9 9 8 7 8 8 10 8 8 8 8 6 6 5 5 4 3 3 2 2 3 3 3 3 4 5 5 6 6 6
9 9 9 9 8 8 8 9 10 10 10 11 11 11 11 12 13 11 8 7 8 9 9 9 9 9 8 8 8 8 8 7 8 9 10 10 9 8 5 5 5 4 4 3 3 3 3 4 4 4 5 5 6 5